Location: Balmoral
(33.0667°S, 151.5833°E)
Time: 17:24:33
(UTC+00:00)

FENGYUN 3A - Pass Details

Date: 18 September 2020
Orbit: 824 x 836 km, 98.4° (Epoch: 25 October)

Event Time Altitude Azimuth Distance (km) Brightness Sun altitude
Rises 18:30:31 0° 350° (N) 3,363 6.6 -16.9°
Reaches altitude 10° 18:33:05 10° 341° (NNW) 2,440 5.8 -16.3°
Maximum altitude 18:37:55 33° 277° (W) 1,375 4.3 -15.3°
Drops below altitude 10° 18:42:51 10° 214° (SSW) 2,472 5.9 -14.3°
Sets 18:45:28 0° 204° (SSW) 3,415 6.7 -13.8°
